sat.trackr.live / text

‹ back to catalog

STARLINK-37029

NORAD 68271 · 2026-055K

PAYLOAD ACTIVE UNKNOWN

§ Identity

Operator
Country
US
Launch date
2026-03-19
Launch site
AFETR
Launch vehicle
Mass (kg)
RCS (m²)

Purposes: comms

External: N2YO · Heavens-Above · Gunter

§ Orbital elements

Epoch: 2026-09-20T01:04:33.071808Z

Period
93.85 min
Inclination
53.1578°
Eccentricity
0.0000976
Mean motion
15.34407371 rev/d
Perigee alt
462.0 km
Apogee alt
463.3 km
Semi-major
6,840.8 km
B*
7.4975e-4
RAAN
131.8225°
Arg perigee
74.9658°
Mean anomaly
285.1453°
Rev number
2,975

§ Raw data

STARLINK-370291 68271U 26055K   26263.04482722  .00025046  00000+0  74975-3 0  99912 68271  53.1578 131.8225 0000976  74.9658 285.1453 15.34407371 29754

JSON: /api/v1/satellites/68271 · /tle

For live sub-satellite position, see the globe view (requires WebGL).

§ Visibility from observer

Set your observer location to see the next 7 days of passes ≥ 10°. The values pass through the URL so the page stays shareable.

No JS? Fill the form by hand. The geolocation button needs JavaScript.